When you browse on this site, cookies collect data to enhance your experience and personalize the content and advertising you see.
Visit our Privacy Policy to learn more. By continuing to use the site, you agree to this use of cookies and data.
  • In Hungary
  • List of Countries
  • For 7 days
  • Water Temperature
  • Weather Map
  • News
  • Weather Widgets
  • user-avatar
    Login

    Hourly Weather Medellín

    Today, 14 November, Thursday

    Time Temperature Precipitation Wind Pressure Humidity
    00:00 +12°C° 0.3 mm 0 mps 586 mmHg 96%
    01:00 +13°C° 0.3 mm 0 mps 586 mmHg 96%
    02:00 +12°C° 0.4 mm 0 mps 585 mmHg 96%
    03:00 +12°C° 0.4 mm 0 mps 585 mmHg 96%
    04:00 +12°C° 0.4 mm 0 mps 585 mmHg 96%
    05:00 +13°C° 0.2 mm 0 mps 586 mmHg 96%
    06:00 +13°C° 0.2 mm 0 mps 586 mmHg 95%
    07:00 +13°C° 0.2 mm 0 mps 587 mmHg 95%
    08:00 +15°C° 0.4 mm 0 mps 588 mmHg 89%
    09:00 +16°C° 0.4 mm 0 mps 589 mmHg 83%
    10:00 +20°C° 0.4 mm 1 mps 590 mmHg 78%
    11:00 +20°C° 1.4 mm 1 mps 589 mmHg 79%
    12:00 +19°C° 1.4 mm 0 mps 588 mmHg 80%
    13:00 +19°C° 1.4 mm 0 mps 588 mmHg 82%
    14:00 +18°C° 1.8 mm 0 mps 587 mmHg 85%
    15:00 +17°C° 1.8 mm 0 mps 587 mmHg 89%
    16:00 +17°C° 1.8 mm 0 mps 586 mmHg 92%
    17:00 +16°C° 1.6 mm 0 mps 586 mmHg 94%
    18:00 +15°C° 1.6 mm 0 mps 586 mmHg 95%
    19:00 +14°C° 1.6 mm 0 mps 586 mmHg 97%
    20:00 +13°C° 1.5 mm 0 mps 586 mmHg 97%
    21:00 +13°C° 1.5 mm 0 mps 587 mmHg 98%
    22:00 +13°C° 1.5 mm 0 mps 587 mmHg 98%
    23:00 +13°C° 1.4 mm 0 mps 587 mmHg 98%

    Tomorrow, 15 November, Friday

    Time Temperature Precipitation Wind Pressure Humidity
    00:00 +13°C° 1.4 mm 0 mps 586 mmHg 98%
    01:00 +13°C° 1.4 mm 0 mps 586 mmHg 97%
    02:00 +13°C° 0.8 mm 0 mps 586 mmHg 97%
    03:00 +13°C° 0.8 mm 0 mps 586 mmHg 97%
    04:00 +12°C° 0.8 mm 0 mps 586 mmHg 98%
    05:00 +13°C° 0.1 mm 0 mps 586 mmHg 97%
    06:00 +13°C° 0.1 mm 0 mps 586 mmHg 96%
    07:00 +13°C° 0.1 mm 0 mps 587 mmHg 96%
    08:00 +15°C° 0.2 mm 0 mps 588 mmHg 92%
    09:00 +16°C° 0.2 mm 0 mps 589 mmHg 88%
    10:00 +17°C° 0.2 mm 0 mps 589 mmHg 83%
    11:00 +18°C° 1.5 mm 0 mps 589 mmHg 84%
    12:00 +18°C° 1.5 mm 0 mps 588 mmHg 84%
    13:00 +18°C° 1.5 mm 0 mps 587 mmHg 85%
    14:00 +17°C° 2.1 mm 0 mps 586 mmHg 88%
    15:00 +16°C° 2.1 mm 0 mps 586 mmHg 92%
    16:00 +15°C° 2.1 mm 0 mps 585 mmHg 96%
    17:00 +14°C° 4.6 mm 0 mps 585 mmHg 97%
    18:00 +14°C° 4.6 mm 0 mps 585 mmHg 97%
    19:00 +13°C° 4.6 mm 0 mps 586 mmHg 98%
    20:00 +13°C° 2.2 mm 0 mps 586 mmHg 98%
    21:00 +13°C° 2.2 mm 0 mps 586 mmHg 98%
    22:00 +13°C° 2.2 mm 0 mps 586 mmHg 98%
    23:00 +13°C° 1.2 mm 0 mps 586 mmHg 98%

    Day after tomorrow, 16 November, Saturday

    Time Temperature Precipitation Wind Pressure Humidity
    00:00 +12°C° 1.2 mm 0 mps 586 mmHg 98%
    01:00 +12°C° 1.2 mm 0 mps 585 mmHg 98%
    02:00 +12°C° 1.1 mm 0 mps 585 mmHg 98%
    03:00 +12°C° 1.1 mm 0 mps 585 mmHg 98%
    04:00 +12°C° 1.1 mm 0 mps 585 mmHg 98%
    05:00 +12°C° 0.2 mm 0 mps 585 mmHg 98%
    06:00 +12°C° 0.2 mm 0 mps 586 mmHg 97%
    07:00 +13°C° 0.2 mm 0 mps 586 mmHg 97%
    08:00 +14°C° 0 mm 0 mps 587 mmHg 94%
    09:00 +14°C° 0 mm 0 mps 587 mmHg 90%
    10:00 +15°C° 0 mm 0 mps 588 mmHg 87%
    11:00 +16°C° 0.5 mm 0 mps 587 mmHg 84%
    12:00 +20°C° 0.5 mm 1 mps 587 mmHg 80%
    13:00 +21°C° 0.5 mm 1 mps 587 mmHg 77%
    14:00 +20°C° 1.4 mm 1 mps 586 mmHg 82%
    15:00 +17°C° 1.4 mm 0 mps 585 mmHg 87%
    16:00 +16°C° 1.4 mm 0 mps 585 mmHg 92%
    17:00 +15°C° 1.6 mm 0 mps 585 mmHg 93%
    18:00 +14°C° 1.6 mm 0 mps 585 mmHg 95%
    19:00 +13°C° 1.6 mm 0 mps 585 mmHg 96%
    20:00 +13°C° 0.6 mm 0 mps 585 mmHg 96%
    21:00 +13°C° 0.6 mm 0 mps 585 mmHg 96%
    22:00 +13°C° 0.6 mm 0 mps 585 mmHg 96%
    23:00 +12°C° 0.5 mm 0 mps 585 mmHg 97%

    17 November, Sunday

    Time Temperature Precipitation Wind Pressure Humidity
    00:00 +12°C° 0.5 mm 0 mps 585 mmHg 97%
    01:00 +12°C° 0.5 mm 0 mps 584 mmHg 97%
    02:00 +12°C° 0.1 mm 0 mps 584 mmHg 97%
    03:00 +12°C° 0.1 mm 0 mps 584 mmHg 97%
    04:00 +12°C° 0.1 mm 0 mps 584 mmHg 98%
    05:00 +12°C° 0 mm 0 mps 584 mmHg 97%
    06:00 +12°C° 0 mm 0 mps 585 mmHg 97%
    07:00 +13°C° 0 mm 0 mps 586 mmHg 96%
    08:00 +14°C° 0.4 mm 0 mps 586 mmHg 92%
    09:00 +16°C° 0.4 mm 0 mps 587 mmHg 89%
    10:00 +19°C° 0.4 mm 1 mps 587 mmHg 85%
    11:00 +20°C° 1.2 mm 1 mps 587 mmHg 83%
    12:00 +18°C° 1.2 mm 0 mps 587 mmHg 80%
    13:00 +19°C° 1.2 mm 0 mps 586 mmHg 78%
    14:00 +18°C° 1.9 mm 0 mps 586 mmHg 82%
    15:00 +17°C° 1.9 mm 0 mps 585 mmHg 87%
    16:00 +17°C° 1.9 mm 0 mps 584 mmHg 91%
    17:00 +15°C° 1.3 mm 0 mps 584 mmHg 93%
    18:00 +14°C° 1.3 mm 0 mps 584 mmHg 94%
    19:00 +13°C° 1.3 mm 0 mps 585 mmHg 95%
    20:00 +13°C° 0.3 mm 0 mps 585 mmHg 96%
    21:00 +13°C° 0.3 mm 0 mps 585 mmHg 96%
    22:00 +12°C° 0.3 mm 0 mps 585 mmHg 96%
    23:00 +12°C° 0.2 mm 0 mps 585 mmHg 97%

    18 November, Monday

    Time Temperature Precipitation Wind Pressure Humidity
    00:00 +12°C° 0.2 mm 0 mps 585 mmHg 97%
    01:00 +12°C° 0.2 mm 0 mps 584 mmHg 97%
    02:00 +12°C° 0.5 mm 0 mps 584 mmHg 97%
    03:00 +12°C° 0.5 mm 0 mps 584 mmHg 97%
    04:00 +12°C° 0.5 mm 0 mps 584 mmHg 97%
    05:00 +12°C° 0.4 mm 0 mps 585 mmHg 97%
    06:00 +12°C° 0.4 mm 0 mps 585 mmHg 97%
    07:00 +13°C° 0.4 mm 0 mps 586 mmHg 96%
    08:00 +14°C° 0.4 mm 0 mps 586 mmHg 92%
    09:00 +15°C° 0.4 mm 0 mps 587 mmHg 87%
    10:00 +17°C° 0.4 mm 0 mps 587 mmHg 82%
    11:00 +17°C° 0.8 mm 0 mps 587 mmHg 81%
    12:00 +18°C° 0.8 mm 0 mps 587 mmHg 79%
    13:00 +19°C° 0.8 mm 0 mps 587 mmHg 78%
    14:00 +18°C° 1.8 mm 0 mps 586 mmHg 82%
    15:00 +18°C° 1.8 mm 0 mps 585 mmHg 86%
    16:00 +17°C° 1.8 mm 0 mps 585 mmHg 89%
    17:00 +16°C° 1.5 mm 0 mps 585 mmHg 91%
    18:00 +14°C° 1.5 mm 0 mps 585 mmHg 94%
    19:00 +13°C° 1.5 mm 0 mps 585 mmHg 96%
    20:00 +13°C° 0.6 mm 0 mps 585 mmHg 96%
    21:00 +13°C° 0.6 mm 0 mps 585 mmHg 96%
    22:00 +12°C° 0.6 mm 0 mps 585 mmHg 96%
    23:00 +12°C° 0.2 mm 0 mps 585 mmHg 96%

    19 November, Tuesday

    Time Temperature Precipitation Wind Pressure Humidity
    00:00 +12°C° 0.2 mm 0 mps 585 mmHg 97%
    01:00 +12°C° 0.2 mm 0 mps 585 mmHg 97%
    02:00 +12°C° 0.1 mm 0 mps 584 mmHg 97%
    03:00 +12°C° 0.1 mm 0 mps 584 mmHg 97%
    04:00 +11°C° 0.1 mm 0 mps 584 mmHg 97%
    05:00 +12°C° 0 mm 0 mps 585 mmHg 96%
    06:00 +12°C° 0 mm 0 mps 585 mmHg 96%
    07:00 +13°C° 0 mm 0 mps 586 mmHg 95%
    08:00 +14°C° 0.1 mm 0 mps 587 mmHg 87%
    09:00 +16°C° 0.1 mm 0 mps 588 mmHg 78%
    10:00 +18°C° 0.1 mm 0 mps 589 mmHg 70%
    11:00 +18°C° 0.6 mm 0 mps 588 mmHg 72%
    12:00 +19°C° 0.6 mm 0 mps 588 mmHg 74%
    13:00 +19°C° 0.6 mm 0 mps 587 mmHg 76%
    14:00 +18°C° 1.7 mm 0 mps 587 mmHg 81%
    15:00 +17°C° 1.7 mm 0 mps 586 mmHg 85%
    16:00 +17°C° 1.7 mm 0 mps 585 mmHg 90%
    17:00 +15°C° 0.9 mm 0 mps 585 mmHg 91%
    18:00 +14°C° 0.9 mm 0 mps 585 mmHg 93%
    19:00 +13°C° 0.9 mm 0 mps 585 mmHg 95%
    20:00 +12°C° 0.1 mm 0 mps 585 mmHg 95%
    21:00 +12°C° 0.1 mm 0 mps 585 mmHg 95%
    22:00 +12°C° 0.1 mm 0 mps 586 mmHg 96%
    23:00 +11°C° 0 mm 0 mps 585 mmHg 96%
    Show more